OCA105 YSSY-NWWW

Flight info

Callsign OCA105
Flight time N/A
Altitude 35000
Route YSSY/25 3353S15104E NOBAR B580 POXAK POXAK2A
Aircraft A321/M-SDE3FGHIRWY/LB1

Departure

Time N/A
Airport Sydney Kingsford Smith International Airport (YSSY)

Arrival

Time 2026-04-11 03:56
Airport La Tontouta International Airport (NWWW)
Time Latitude Longitude Altitude Speed Heading
2026-04-11 02:58 -27.05779 160.61043 34948 ft 515 kts 42°
2026-04-11 02:58 -27.00834 160.66875 34935 ft 515 kts 42°
2026-04-11 02:59 -26.95900 160.72697 34926 ft 515 kts 42°
2026-04-11 02:59 -26.90963 160.78514 34933 ft 515 kts 42°
2026-04-11 03:00 -26.86026 160.84325 34940 ft 515 kts 42°
2026-04-11 03:00 -26.81081 160.90137 34945 ft 515 kts 42°
2026-04-11 03:01 -26.76135 160.95942 34943 ft 516 kts 42°
2026-04-11 03:01 -26.71181 161.01745 34928 ft 516 kts 42°
2026-04-11 03:02 -26.66225 161.07540 34933 ft 516 kts 42°
2026-04-11 03:02 -26.61264 161.13332 34935 ft 516 kts 42°
2026-04-11 03:03 -26.56306 161.19122 34931 ft 516 kts 42°
2026-04-11 03:03 -26.51347 161.24911 34939 ft 516 kts 42°
2026-04-11 03:04 -26.46378 161.30692 34936 ft 516 kts 42°
2026-04-11 03:04 -26.41436 161.36432 34935 ft 516 kts 42°
2026-04-11 03:05 -26.36458 161.42209 34934 ft 516 kts 42°
2026-04-11 03:05 -26.31479 161.47979 34935 ft 516 kts 42°
2026-04-11 03:06 -26.26493 161.53748 34929 ft 517 kts 42°
2026-04-11 03:06 -26.21518 161.59520 34924 ft 517 kts 43°
2026-04-11 03:07 -26.16532 161.65289 34922 ft 517 kts 43°
2026-04-11 03:07 -26.11533 161.71044 34923 ft 517 kts 42°
2026-04-11 03:08 -26.04029 161.79669 34933 ft 517 kts 42°
2026-04-11 03:08 -25.99021 161.85413 34923 ft 517 kts 42°
2026-04-11 03:09 -25.94012 161.91154 34932 ft 517 kts 43°
2026-04-11 03:09 -25.89014 161.96899 34934 ft 517 kts 43°
2026-04-11 03:10 -25.84017 162.02635 34928 ft 517 kts 43°
2026-04-11 03:10 -25.79008 162.08355 34929 ft 517 kts 42°
2026-04-11 03:11 -25.73997 162.14073 34911 ft 516 kts 43°
2026-04-11 03:11 -25.68988 162.19780 34923 ft 516 kts 43°
2026-04-11 03:12 -25.63985 162.25486 34928 ft 516 kts 43°
2026-04-11 03:12 -25.58981 162.31187 34930 ft 516 kts 43°
2026-04-11 03:13 -25.53965 162.36878 34928 ft 516 kts 43°
2026-04-11 03:13 -25.48945 162.42566 34924 ft 517 kts 43°
2026-04-11 03:14 -25.43931 162.48261 34920 ft 516 kts 43°
2026-04-11 03:14 -25.38951 162.53908 34927 ft 516 kts 43°
2026-04-11 03:15 -25.33927 162.59580 34928 ft 516 kts 43°
2026-04-11 03:15 -25.28896 162.65242 34932 ft 516 kts 43°
2026-04-11 03:16 -25.23876 162.70912 34926 ft 516 kts 43°
2026-04-11 03:16 -25.18850 162.76588 34916 ft 516 kts 43°
2026-04-11 03:17 -25.13816 162.82242 34920 ft 516 kts 43°
2026-04-11 03:17 -25.08778 162.87891 34922 ft 516 kts 43°
2026-04-11 03:18 -25.03748 162.93544 34920 ft 516 kts 43°
2026-04-11 03:18 -24.98715 162.99191 34922 ft 516 kts 43°
2026-04-11 03:19 -24.93666 163.04829 34904 ft 517 kts 43°
2026-04-11 03:19 -24.88616 163.10465 34909 ft 517 kts 43°
2026-04-11 03:20 -24.83562 163.16099 34915 ft 517 kts 43°
2026-04-11 03:20 -24.78503 163.21725 34916 ft 517 kts 43°
2026-04-11 03:21 -24.73439 163.27344 34916 ft 517 kts 43°
2026-04-11 03:21 -24.68381 163.32962 34910 ft 517 kts 43°
2026-04-11 03:22 -24.63351 163.38537 34912 ft 517 kts 43°
2026-04-11 03:22 -24.58288 163.44153 34913 ft 517 kts 43°
2026-04-11 03:23 -24.53229 163.49773 34912 ft 517 kts 43°
2026-04-11 03:23 -24.48160 163.55377 34914 ft 517 kts 43°
2026-04-11 03:24 -24.43903 163.60058 34910 ft 517 kts 43°
2026-04-11 03:24 -24.38826 163.65649 34919 ft 517 kts 43°
2026-04-11 03:25 -24.33751 163.71242 34909 ft 517 kts 43°
2026-04-11 03:25 -24.28668 163.76829 34910 ft 518 kts 43°
2026-04-11 03:26 -24.23615 163.82373 34906 ft 518 kts 43°
2026-04-11 03:26 -24.18530 163.87958 34909 ft 518 kts 43°
2026-04-11 03:27 -24.13437 163.93537 34895 ft 518 kts 43°
2026-04-11 03:27 -24.08343 163.99108 34905 ft 517 kts 43°
2026-04-11 03:28 -24.03251 164.04679 34910 ft 518 kts 44°
2026-04-11 03:28 -23.98159 164.10244 34904 ft 518 kts 43°
2026-04-11 03:29 -23.93060 164.15811 34903 ft 518 kts 43°
2026-04-11 03:29 -23.87952 164.21371 34903 ft 518 kts 43°
2026-04-11 03:30 -23.82844 164.26928 34904 ft 518 kts 43°
2026-04-11 03:30 -23.77732 164.32483 34905 ft 518 kts 43°
2026-04-11 03:31 -23.72619 164.38033 34915 ft 519 kts 43°
2026-04-11 03:31 -23.67497 164.43587 34905 ft 519 kts 44°
2026-04-11 03:32 -23.62375 164.49143 34903 ft 520 kts 43°
2026-04-11 03:32 -23.57237 164.54690 34892 ft 520 kts 44°
2026-04-11 03:33 -23.52102 164.60239 34898 ft 519 kts 44°
2026-04-11 03:33 -23.46975 164.65783 34899 ft 519 kts 44°
2026-04-11 03:34 -23.41849 164.71316 34912 ft 519 kts 44°
2026-04-11 03:34 -23.36712 164.76846 34903 ft 520 kts 44°
2026-04-11 03:35 -23.31599 164.82338 34885 ft 520 kts 44°
2026-04-11 03:35 -23.26446 164.87859 34879 ft 521 kts 44°
2026-04-11 03:36 -23.21278 164.93401 34862 ft 523 kts 44°
2026-04-11 03:36 -23.16087 164.98954 34865 ft 525 kts 44°
2026-04-11 03:37 -23.10865 165.04540 33881 ft 534 kts 44°
2026-04-11 03:37 -23.08205 165.07384 32606 ft 537 kts 44°
2026-04-11 03:37 -23.05559 165.10215 31419 ft 531 kts 45°
2026-04-11 03:38 -23.02951 165.13006 30387 ft 521 kts 45°
2026-04-11 03:38 -23.00393 165.15739 29352 ft 510 kts 45°
2026-04-11 03:38 -22.97889 165.18406 28264 ft 499 kts 45°
2026-04-11 03:38 -22.95433 165.21017 27220 ft 489 kts 45°
2026-04-11 03:39 -22.93032 165.23572 26209 ft 479 kts 45°
2026-04-11 03:39 -22.90682 165.26075 25286 ft 468 kts 45°
2026-04-11 03:39 -22.88408 165.28499 24843 ft 448 kts 45°
2026-04-11 03:39 -22.86202 165.30848 24408 ft 444 kts 45°
2026-04-11 03:40 -22.84004 165.33186 23909 ft 442 kts 45°
2026-04-11 03:40 -22.81812 165.35516 23401 ft 440 kts 45°
2026-04-11 03:40 -22.79633 165.37831 22848 ft 437 kts 45°
2026-04-11 03:40 -22.77473 165.40126 22347 ft 433 kts 45°
2026-04-11 03:41 -22.75330 165.42400 21845 ft 429 kts 45°
2026-04-11 03:41 -22.73206 165.44651 21338 ft 425 kts 45°
2026-04-11 03:41 -22.71098 165.46886 20836 ft 423 kts 45°
2026-04-11 03:41 -22.69004 165.49107 20322 ft 420 kts 45°
2026-04-11 03:42 -22.66922 165.51313 19824 ft 418 kts 45°
2026-04-11 03:42 -22.64848 165.53510 19319 ft 416 kts 45°
2026-04-11 03:42 -22.62779 165.55699 18821 ft 415 kts 45°
2026-04-11 03:42 -22.60722 165.57875 18315 ft 413 kts 45°
2026-04-11 03:43 -22.58668 165.60044 17833 ft 410 kts 45°
2026-04-11 03:43 -22.56639 165.62190 17292 ft 408 kts 45°
2026-04-11 03:43 -22.54655 165.64289 16875 ft 403 kts 45°
2026-04-11 03:43 -22.52661 165.66398 16469 ft 398 kts 45°
2026-04-11 03:44 -22.50684 165.68489 15944 ft 397 kts 45°
2026-04-11 03:44 -22.48727 165.70553 15600 ft 390 kts 44°
2026-04-11 03:44 -22.46786 165.72597 15144 ft 388 kts 44°
2026-04-11 03:44 -22.44858 165.74629 14702 ft 385 kts 44°
2026-04-11 03:45 -22.42950 165.76643 14280 ft 382 kts 44°
2026-04-11 03:45 -22.41054 165.78639 13874 ft 379 kts 44°
2026-04-11 03:45 -22.39174 165.80617 13446 ft 375 kts 44°
2026-04-11 03:45 -22.37312 165.82578 12979 ft 372 kts 44°
2026-04-11 03:46 -22.35485 165.84503 12163 ft 364 kts 44°
2026-04-11 03:46 -22.33719 165.86360 11744 ft 343 kts 44°
2026-04-11 03:46 -22.32061 165.88101 11374 ft 323 kts 44°
2026-04-11 03:46 -22.30487 165.89755 10998 ft 310 kts 44°
2026-04-11 03:47 -22.28934 165.91387 10629 ft 313 kts 44°
2026-04-11 03:47 -22.27379 165.93022 10246 ft 311 kts 44°
2026-04-11 03:47 -22.25834 165.94647 10064 ft 310 kts 44°
2026-04-11 03:47 -22.24286 165.96272 9942 ft 310 kts 44°
2026-04-11 03:48 -22.22740 165.97897 9791 ft 311 kts 44°
2026-04-11 03:48 -22.21172 165.99489 9246 ft 306 kts 37°
2026-04-11 03:48 -22.19291 166.00483 8712 ft 300 kts 10°
2026-04-11 03:48 -22.17253 166.00493 8176 ft 291 kts 343°
2026-04-11 03:49 -22.15449 165.99597 7740 ft 284 kts 322°
2026-04-11 03:49 -22.13825 165.98390 7281 ft 283 kts 326°
2026-04-11 03:49 -22.12128 165.97336 6842 ft 280 kts 330°
2026-04-11 03:49 -22.10378 165.96442 6436 ft 277 kts 335°
2026-04-11 03:50 -22.08581 165.95701 6031 ft 275 kts 339°
2026-04-11 03:50 -22.06753 165.95110 5744 ft 275 kts 343°
2026-04-11 03:50 -22.04878 165.94665 5394 ft 276 kts 348°
2026-04-11 03:50 -22.02976 165.94380 5011 ft 275 kts 353°
2026-04-11 03:51 -22.01071 165.94260 4662 ft 273 kts 357°
2026-04-11 03:51 -21.99179 165.94379 4252 ft 273 kts 11°
2026-04-11 03:51 -21.97447 165.95179 3997 ft 270 kts 34°
2026-04-11 03:51 -21.96071 165.96564 3766 ft 273 kts 48°
2026-04-11 03:52 -21.95046 165.98290 3322 ft 275 kts 66°
2026-04-11 03:52 -21.94547 166.00260 3038 ft 270 kts 84°
2026-04-11 03:52 -21.94358 166.02221 2994 ft 256 kts 84°
2026-04-11 03:52 -21.94166 166.04066 3003 ft 240 kts 84°
2026-04-11 03:53 -21.93980 166.05792 2852 ft 228 kts 84°
2026-04-11 03:53 -21.93997 166.07452 2640 ft 214 kts 102°
2026-04-11 03:53 -21.94479 166.08916 2329 ft 203 kts 121°
2026-04-11 03:53 -21.95183 166.10168 2050 ft 187 kts 123°
2026-04-11 03:54 -21.95829 166.11318 1821 ft 170 kts 124°
2026-04-11 03:54 -21.96405 166.12342 1612 ft 153 kts 124°
2026-04-11 03:54 -21.96938 166.13285 1402 ft 147 kts 125°
2026-04-11 03:54 -21.97463 166.14215 1222 ft 144 kts 125°
2026-04-11 03:55 -21.97992 166.15151 1052 ft 147 kts 128°
2026-04-11 03:55 -21.98524 166.16097 838 ft 148 kts 125°
2026-04-11 03:55 -21.99056 166.17042 679 ft 145 kts 125°
2026-04-11 03:55 -21.99556 166.17959 517 ft 140 kts 124°
2026-04-11 03:56 -22.00062 166.18855 317 ft 142 kts 125°
2026-04-11 03:56 -22.00583 166.19760 125 ft 143 kts 126°
2026-04-11 03:56 -22.01091 166.20644 53 ft 124 kts 121°
2026-04-11 03:56 -22.01379 166.21164 57 ft 37 kts 120°
2026-04-11 03:57 -22.01459 166.21312 55 ft 21 kts 121°
2026-04-11 03:57 -22.01535 166.21446 53 ft 20 kts 122°
2026-04-11 03:57 -22.01600 166.21560 52 ft 17 kts 118°
2026-04-11 03:57 -22.01569 166.21656 58 ft 10 kts 30°
2026-04-11 03:58 -22.01512 166.21651 60 ft 8 kts 319°
2026-04-11 03:58 -22.01483 166.21620 55 ft 4 kts 353°
2026-04-11 03:58 -22.01459 166.21630 61 ft 3 kts 27°
2026-04-11 03:58 -22.01441 166.21642 53 ft 3 kts 31°
2026-04-11 03:59 -22.01426 166.21652 57 ft 2 kts 31°
2026-04-11 03:59 -22.01419 166.21656 54 ft 0 kts 31°
2026-04-11 03:59 -22.01416 166.21658 55 ft 0 kts 31°